Torna al catalogo

NOAA 16 DEB

AttivoSSO
NORAD 41305·DEBRIS·🇺🇸 United States

Lanciato Sep 21, 2000 da Vandenberg Space Force Base

Loading…

Prossimi Passaggi (prossime 24 ore)

TLE

AggiornatoSource: Space-Track

Epoca: Sep 14, 2026, 10:34 UTC

1 41305U 00055HH  26257.44056524  .00002062  00000-0  10076-2 0  9991
2 41305  98.7354 248.6235 0035628   7.1732 352.9946 14.18730534550177

Traccia NOAA 16 DEB in tempo reale con AllMySat

Download on the App Store